Dewpoint
62 60 59 58 57 56 55 54 52 49 47 45 53 54 53 53 53 54 56 56 55 56 51 52 51 51 52 52 51 49 50 49 49 49 48 48 48 48 48 48 49 49 49
62 59 58 58 56 56 54 53 50 47 47 47 53 53 52 52 52 54 56 55 54 54 54 53 52 51 50 50 50 48 48 49 49 48 48 48 48 48 48 48 48 48 48
63 59 58 57 56 55 54 52 50 47 46 46 53 52 51 51 51 53 53 54 55 55 53 53 52 51 51 49 49 49 47 48 48 48 47 47 47 48 47 47 48 47 47
64 59 58 57 56 54 53 51 49 45 45 47 51 52 50 50 50 50 50 51 52 53 54 53 52 52 49 49 49 48 48 47 47 47 47 47 47 46 46 46 46 47 46
64 62 59 57 55 54 52 51 48 45 45 48 50 50 50 49 49 48 48 48 49 49 50 51 51 51 50 50 49 49 48 47 47 46 46 46 45 46 45 45 45 46 46
64 63 60 58 55 54 52 50 47 47 45 48 48 48 48 49 48 48 47 47 46 46 46 47 46 47 48 49 50 49 49 48 47 46 45 45 45 45 45 44 44 44 44
64 63 63 59 56 54 52 49 47 46 46 46 45 44 44 45 46 47 46 45 44 44 44 44 44 44 46 47 48 49 49 47 46 46 45 44 44 44 44 43 43 43 43
64 63 63 61 57 54 52 50 47 45 45 46 43 42 41 41 42 45 45 45 44 44 43 42 42 41 40 41 44 47 47 47 46 45 44 44 43 42 42 41 41 40 40
62 63 63 62 58 56 53 50 48 46 44 45 44 42 38 38 39 42 43 43 42 43 42 41 41 38 38 39 41 42 44 45 45 44 42 40 40 40 40 39 39 39 39
59 59 61 61 60 56 53 50 49 47 46 45 44 42 40 39 38 38 41 42 41 41 41 40 39 37 37 36 38 39 41 43 43 41 40 40 39 39 39 39 38 38 38
54 56 58 58 59 58 55 52 50 48 47 45 45 43 39 39 38 38 38 39 40 40 41 40 38 37 35 35 37 38 38 39 39 39 39 39 38 38 38 38 37 37 37
51 54 56 56 57 57 57 55 52 50 48 48 46 43 40 37 37 36 37 39 38 38 39 39 37 35 34 34 35 37 36 37 37 37 37 37 37 37 37 36 36 36 36
48 48 51 53 53 54 55 56 53 51 50 50 48 45 44 40 35 36 37 38 38 38 38 38 36 34 34 34 35 36 36 36 36 35 35 35 35 35 35 35 35 35 35
46 48 48 48 49 51 53 54 54 53 50 49 49 47 45 43 39 37 39 38 37 37 37 37 36 34 33 34 34 35 35 35 34 33 33 33 33 33 33 33 32 32 32
47 47 47 47 47 47 48 50 51 52 51 50 49 48 46 45 43 41 40 39 36 35 35 36 34 34 34 34 34 33 34 33 33 32 31 31 31 31 30 30 30 30 30
47 46 46 46 46 46 47 48 49 51 51 49 49 48 46 46 43 43 41 39 37 36 35 37 36 34 35 34 34 33 33 33 32 31 30 30 29 29 28 28 28 28 28
44 44 44 44 44 44 45 45 46 49 50 50 49 48 46 46 43 43 42 39 38 37 35 37 35 35 35 33 33 32 34 32 32 30 29 28 28 27 27 26 26 25 25
43 42 43 43 43 41 42 42 43 45 48 50 48 48 46 45 44 43 42 39 38 38 37 33 34 34 32 33 31 31 32 31 30 29 28 27 27 26 26 26 25 25 24
41 41 41 41 39 40 41 43 44 44 44 48 48 47 46 44 43 43 41 40 39 38 37 34 32 34 32 32 30 30 29 29 29 29 29 27 27 26 25 24 24 23 23
40 40 40 39 40 40 42 43 46 47 46 48 48 46 45 43 43 42 41 40 39 38 36 34 33 31 30 31 30 28 26 28 28 29 28 28 27 26 24 23 23 22 22
40 39 39 38 39 40 41 42 43 43 44 44 44 45 44 44 43 43 42 40 39 38 37 34 32 31 30 29 29 29 25 25 26 27 27 28 27 25 23 22 21 21 21
38 37 36 36 36 37 40 41 41 39 40 39 39 41 42 42 42 42 41 40 39 37 36 33 32 31 31 30 31 29 26 22 21 26 25 26 25 22 21 21 21 20 20
35 34 34 33 33 36 38 39 39 38 38 39 39 39 40 41 41 40 39 39 38 38 37 35 32 32 31 31 30 29 27 23 21 25 24 24 24 21 21 22 22 20 20
32 32 32 32 33 34 35 35 35 35 35 36 38 39 38 40 39 38 38 37 37 37 36 36 34 34 32 32 30 28 27 24 26 25 23 22 23 20 21 22 22 21 20
31 31 31 31 31 31 32 33 32 32 32 32 33 35 35 35 36 36 35 34 34 34 36 36 35 34 33 32 30 28 26 24 24 24 25 24 21 20 20 20 23 22 21
31 31 31 31 31 31 32 32 32 31 30 30 31 32 33 34 34 34 33 33 31 32 34 33 33 33 33 32 31 29 28 25 23 22 23 23 22 21 20 20 20 22 22
Wind_Speed
15 15 13 13 14 13 13 11 10 10 8 5 10 15 14 15 15 13 14 20 18 16 15 15 15 14 15 15 14 14 13 13 13 13 13 14 14 13 13 12 13 13 13
15 16 15 15 16 18 17 17 17 15 13 7 15 12 14 13 14 16 15 17 18 17 15 16 15 14 14 14 14 13 13 13 13 13 13 13 13 13 13 13 12 12 13
18 19 17 17 17 16 18 16 15 14 13 8 18 15 14 14 14 15 16 14 14 16 15 16 16 15 14 14 14 13 12 12 12 13 12 13 13 13 12 12 13 12 12
18 19 19 20 19 19 21 19 17 17 16 15 17 17 15 14 14 16 15 14 13 11 14 16 16 15 15 14 13 12 12 11 11 12 12 12 13 12 11 11 12 12 12
22 20 19 20 20 19 19 21 19 19 20 17 18 16 16 16 16 14 17 18 16 12 12 13 13 12 13 12 14 12 12 12 11 10 11 12 11 12 11 11 11 11 12
23 21 19 19 18 20 17 16 18 19 18 19 17 16 14 15 14 15 16 16 18 15 13 11 10 6 9 10 12 14 13 12 12 11 11 11 12 11 11 11 11 11 11
20 23 22 17 20 22 25 28 25 24 18 18 17 11 4 6 13 14 14 14 16 17 18 12 11 6 6 7 8 11 14 13 12 11 11 11 11 12 11 12 12 12 12
19 18 21 21 23 23 24 24 25 22 21 26 18 19 9 6 10 13 16 17 17 16 17 17 11 9 6 3 3 7 11 14 13 12 12 11 11 11 12 12 11 11 11
16 17 20 20 20 23 25 29 31 35 33 28 29 17 10 14 14 11 17 18 19 18 17 18 17 11 13 10 5 2 4 10 14 14 11 11 12 11 11 11 11 10 11
13 16 20 22 22 23 28 30 31 36 31 35 26 22 8 11 14 11 14 18 20 21 21 19 23 17 11 13 12 5 4 7 12 14 12 11 12 11 11 11 11 11 12
16 16 17 19 20 18 22 27 30 35 34 29 34 37 18 13 8 14 22 21 18 20 21 21 18 20 16 12 14 13 7 6 11 14 11 11 11 11 11 12 12 11 12
16 15 18 20 21 23 20 22 24 30 35 33 34 32 35 27 24 15 15 31 30 21 19 18 18 15 17 11 13 18 10 7 11 13 11 9 10 10 11 12 12 11 12
15 17 18 19 21 24 26 24 25 28 29 31 35 32 32 33 23 19 17 30 29 23 11 16 19 19 19 14 13 17 16 12 14 13 11 9 10 10 10 12 13 12 13
19 16 17 20 24 26 28 29 28 28 34 35 31 32 32 28 20 24 25 38 26 17 12 10 15 17 18 17 15 17 12 12 16 13 12 10 10 9 10 12 13 12 13
17 19 22 24 25 27 31 33 32 32 30 36 38 33 32 26 23 22 25 37 36 23 21 18 10 16 19 20 20 13 11 16 15 13 13 10 11 10 10 12 13 12 13
18 22 26 28 31 31 31 32 35 37 34 34 35 34 36 29 24 25 30 31 25 24 20 25 10 23 21 19 21 15 12 15 15 14 11 11 10 11 11 12 12 12 13
22 25 28 30 33 33 32 33 38 40 39 37 38 38 39 35 28 26 29 27 19 22 28 22 19 25 23 24 19 15 14 14 14 14 12 12 11 11 10 12 12 12 10
25 28 28 29 28 33 34 37 40 41 43 42 44 41 39 33 31 29 29 26 21 21 33 31 27 25 26 21 23 20 14 13 14 16 15 15 12 11 11 11 11 11 10
29 28 27 26 31 32 34 37 42 46 46 44 41 42 39 33 32 30 30 26 23 25 28 32 22 21 23 23 22 17 16 14 13 17 16 15 13 11 10 10 9 9 9
27 27 23 27 28 31 35 40 44 43 44 39 38 39 36 36 35 38 33 31 28 29 28 25 27 25 25 22 22 24 17 15 14 15 15 14 14 12 10 10 8 8 8
24 21 23 25 26 26 23 12 4 9 15 18 21 27 29 32 38 37 33 32 33 29 26 26 24 24 22 26 26 19 19 18 12 12 13 11 11 9 8 8 8 7 8
19 21 18 15 15 13 14 6 15 13 19 23 23 22 26 32 33 34 33 33 31 30 27 25 20 28 26 26 20 25 22 20 13 12 14 13 11 11 8 7 9 7 7
20 17 11 9 9 6 4 8 16 16 20 21 24 26 25 25 32 29 31 31 29 31 35 31 30 29 25 28 25 26 24 21 11 14 15 13 10 11 10 9 10 10 8
15 13 10 5 1 6 13 18 18 17 18 17 20 25 25 26 25 26 25 23 23 22 23 22 28 26 22 26 27 22 22 15 7 12 14 8 9 8 10 9 10 9 8
11 7 4 2 4 5 11 17 20 17 19 16 15 18 21 21 27 28 24 23 21 14 12 18 21 26 29 28 26 23 23 23 10 10 8 6 8 7 8 9 8 9 8
4 4 6 7 7 10 13 16 17 16 19 18 17 17 23 24 28 29 26 26 25 19 22 20 19 23 27 26 30 26 26 26 12 6 11 10 10 9 7 6 11 8 7
Wind_Direction
181 179 176 174 181 178 190 200 217 224 224 175 156 143 144 143 141 139 136 136 138 146 151 144 140 136 130 124 125 123 113 110 103 99 95 89 82 79 78 72 67 63 59
182 184 185 186 187 183 189 196 205 213 221 195 168 154 147 144 139 138 134 145 147 153 149 145 143 142 137 133 130 127 123 115 112 109 104 97 91 83 76 71 62 57 53
190 186 188 193 195 193 189 198 205 209 217 181 165 158 149 145 140 134 128 121 134 149 148 148 143 143 139 137 132 132 130 125 120 115 109 105 100 92 82 74 67 57 48
199 194 192 200 197 191 189 192 195 202 211 179 160 156 155 151 148 143 135 122 115 119 134 141 144 145 147 144 140 137 133 130 124 117 114 109 104 98 88 80 71 65 57
208 199 204 206 196 200 200 191 190 193 193 177 163 154 154 155 156 153 146 138 130 126 117 125 125 134 144 147 147 142 139 135 129 123 114 110 102 94 91 82 76 70 64
215 212 208 204 200 197 204 199 199 191 187 167 159 159 160 164 162 164 158 147 144 138 125 123 122 120 140 142 149 145 144 139 135 127 121 109 103 95 91 83 71 61 56
226 218 219 209 199 203 198 198 188 190 181 158 132 129 137 169 167 172 161 155 152 148 139 132 137 144 147 146 152 152 147 141 136 130 117 109 105 101 90 82 73 65 57
241 235 227 217 206 205 207 203 189 189 187 174 170 148 166 198 214 189 172 170 161 154 151 146 146 142 128 101 114 155 149 141 136 130 120 111 104 99 95 85 76 68 59
279 252 244 237 220 209 206 200 192 192 191 192 178 167 162 205 164 189 185 176 170 165 162 156 147 151 150 146 143 116 94 137 138 127 128 121 109 102 98 92 82 69 63
274 273 281 263 233 218 214 205 199 204 201 186 195 197 164 147 179 163 192 188 175 176 174 172 153 158 163 146 149 181 147 129 142 134 130 123 114 107 97 89 82 73 63
282 275 269 265 271 257 230 220 208 209 207 194 200 192 180 185 187 157 175 176 187 184 177 169 165 159 159 165 160 156 178 165 144 132 128 124 118 111 104 94 83 74 66
267 268 267 268 267 263 249 236 233 221 210 210 205 207 195 190 191 170 163 176 177 176 164 161 157 154 142 163 163 148 164 141 135 124 124 128 117 110 105 95 86 78 71
261 261 260 265 268 265 259 247 232 220 227 221 196 212 204 216 198 190 168 168 167 157 150 165 163 162 147 155 164 153 163 157 137 124 125 126 113 108 101 97 88 78 71
272 265 256 261 265 269 266 254 240 234 219 218 223 210 216 212 211 187 170 156 154 167 167 140 161 162 148 145 157 164 156 155 129 128 124 128 114 110 103 94 87 77 68
268 273 273 269 264 263 262 263 252 235 226 216 212 211 212 213 196 193 174 169 163 166 179 167 145 167 151 144 160 150 160 144 129 132 125 131 125 122 112 99 88 81 72
274 276 275 275 272 266 258 257 259 246 231 220 211 209 203 202 198 188 178 180 177 161 167 162 154 156 147 140 154 140 156 139 139 135 133 130 129 122 114 103 93 82 73
281 276 278 277 273 268 265 259 253 251 240 225 213 206 204 196 189 185 175 178 168 155 148 152 134 150 141 136 147 154 155 142 147 137 142 136 130 124 116 104 96 87 75
282 283 280 276 269 269 267 260 255 249 244 230 210 205 197 189 188 182 167 167 153 155 148 142 145 152 148 148 150 153 155 160 136 154 156 147 145 140 127 109 99 91 82
287 284 278 274 277 275 273 266 256 246 238 230 205 198 188 178 179 168 156 152 143 140 147 147 147 153 148 151 146 146 159 153 149 163 164 156 153 145 130 114 103 89 76
284 283 278 282 284 286 280 270 260 247 228 218 194 184 180 178 173 160 158 154 142 143 147 140 151 151 149 158 151 154 158 148 164 172 173 167 161 154 143 124 112 97 84
284 284 290 291 289 280 267 283 81 126 141 147 168 167 165 170 159 159 156 155 145 143 148 140 151 155 155 159 168 173 149 154 173 180 173 174 166 153 148 132 117 102 88
288 298 293 289 293 295 293 183 125 129 126 130 131 140 145 149 142 145 147 146 145 143 150 147 159 166 167 168 163 163 150 163 178 199 171 179 159 162 163 165 138 120 102
304 300 294 302 319 336 112 115 128 129 124 128 134 132 139 145 135 129 131 139 150 153 155 158 167 172 167 173 160 166 170 172 176 161 165 178 163 177 184 178 156 139 123
299 294 293 284 320 40 85 96 93 98 101 113 133 139 141 143 134 132 132 135 142 147 152 162 165 164 166 167 166 164 161 155 107 153 171 163 165 183 187 188 172 148 139
313 307 308 295 113 82 93 98 96 95 104 102 103 113 122 124 130 128 127 134 135 136 144 145 144 150 153 160 158 148 155 166 159 177 185 129 159 147 181 204 195 173 166
334 29 45 44 86 100 102 97 100 106 102 101 95 106 123 129 132 138 145 144 141 140 138 131 129 135 147 162 165 169 163 174 154 151 200 152 148 152 186 212 197 205 192